TimeEDT,TemperatureF,Dew PointF,Humidity,Sea Level PressureIn,VisibilityMPH,Wind Direction,Wind SpeedMPH,Gust SpeedMPH,PrecipitationIn,Events,Conditions,WindDirDegrees,DateUTC
12:15 AM,69.8,64.8,84,30.11,10.0,WSW,8.1,-,N/A,,Clear,250,2013-10-03 04:15:00
12:35 AM,69.1,64.8,86,30.11,10.0,WSW,6.9,-,N/A,,Clear,250,2013-10-03 04:35:00
12:55 AM,68.9,65.1,88,30.11,10.0,West,5.8,-,N/A,,Clear,260,2013-10-03 04:55:00
1:15 AM,68.7,64.9,88,30.11,10.0,West,3.5,-,N/A,,Clear,260,2013-10-03 05:15:00
1:35 AM,68.7,64.9,88,30.11,10.0,WSW,5.8,-,N/A,,Clear,250,2013-10-03 05:35:00
1:55 AM,68.5,64.6,87,30.11,10.0,West,3.5,-,N/A,,Clear,260,2013-10-03 05:55:00
2:15 AM,68.5,64.4,87,30.11,10.0,West,3.5,-,N/A,,Clear,260,2013-10-03 06:15:00
2:35 AM,68.2,64.4,88,30.11,10.0,Calm,Calm,-,N/A,,Clear,0,2013-10-03 06:35:00
2:55 AM,68.2,64.0,87,30.11,10.0,West,6.9,-,N/A,,Clear,260,2013-10-03 06:55:00
3:15 AM,68.0,63.7,86,30.10,10.0,West,4.6,-,N/A,,Clear,260,2013-10-03 07:15:00
3:35 AM,68.0,63.3,85,30.10,10.0,West,4.6,-,N/A,,Clear,280,2013-10-03 07:35:00
3:55 AM,67.6,62.6,84,30.10,10.0,WNW,3.5,-,N/A,,Clear,290,2013-10-03 07:55:00
4:15 AM,67.3,61.9,83,30.10,10.0,WNW,4.6,-,N/A,,Clear,290,2013-10-03 08:15:00
4:35 AM,67.1,61.7,83,30.10,10.0,Calm,Calm,-,N/A,,Clear,0,2013-10-03 08:35:00
4:55 AM,67.1,61.9,83,30.10,10.0,West,3.5,-,N/A,,Clear,280,2013-10-03 08:55:00
5:15 AM,67.1,61.5,82,30.11,10.0,West,4.6,-,N/A,,Clear,280,2013-10-03 09:15:00
5:35 AM,67.1,61.5,82,30.11,10.0,West,3.5,-,N/A,,Clear,280,2013-10-03 09:35:00
5:55 AM,67.1,61.5,82,30.11,10.0,West,3.5,-,N/A,,Clear,280,2013-10-03 09:55:00
6:15 AM,66.6,61.2,83,30.11,10.0,WNW,3.5,-,N/A,,Clear,290,2013-10-03 10:15:00
6:35 AM,66.6,61.0,82,30.12,10.0,WNW,4.6,-,N/A,,Clear,290,2013-10-03 10:35:00
6:55 AM,66.4,61.0,83,30.12,10.0,WNW,4.6,-,N/A,,Clear,300,2013-10-03 10:55:00
7:15 AM,66.4,60.6,82,30.12,10.0,WNW,4.6,-,N/A,,Clear,290,2013-10-03 11:15:00
7:35 AM,67.1,60.8,80,30.12,10.0,West,4.6,-,N/A,,Scattered Clouds,280,2013-10-03 11:35:00
7:55 AM,67.6,61.0,79,30.13,10.0,West,4.6,-,N/A,,Scattered Clouds,280,2013-10-03 11:55:00
8:15 AM,68.2,61.3,79,30.13,10.0,West,3.5,-,N/A,,Clear,280,2013-10-03 12:15:00
8:35 AM,68.7,61.7,78,30.13,10.0,West,4.6,-,N/A,,Clear,270,2013-10-03 12:35:00
8:55 AM,69.1,61.9,78,30.13,10.0,West,4.6,-,N/A,,Clear,270,2013-10-03 12:55:00
9:15 AM,70.5,62.6,76,30.14,10.0,West,4.6,-,N/A,,Clear,270,2013-10-03 13:15:00
9:35 AM,71.8,63.1,74,30.14,10.0,WNW,3.5,-,N/A,,Clear,290,2013-10-03 13:35:00
9:55 AM,73.4,62.8,69,30.14,10.0,West,4.6,-,N/A,,Clear,280,2013-10-03 13:55:00
10:15 AM,75.4,62.2,64,30.14,10.0,WNW,3.5,-,N/A,,Clear,300,2013-10-03 14:15:00
10:35 AM,76.6,61.7,60,30.14,10.0,NW,5.8,-,N/A,,Clear,310,2013-10-03 14:35:00
10:55 AM,75.0,63.9,68,30.14,10.0,West,5.8,-,N/A,,Clear,260,2013-10-03 14:55:00
11:15 AM,75.9,63.5,65,30.14,10.0,West,4.6,-,N/A,,Clear,260,2013-10-03 15:15:00
11:35 AM,79.2,63.5,59,30.14,10.0,West,3.5,-,N/A,,Clear,280,2013-10-03 15:35:00
11:55 AM,79.9,61.2,53,30.13,10.0,West,4.6,-,N/A,,Clear,270,2013-10-03 15:55:00
12:15 PM,79.9,61.2,53,30.13,10.0,West,3.5,-,N/A,,Clear,270,2013-10-03 16:15:00
12:35 PM,79.9,61.3,53,30.13,10.0,WSW,3.5,-,N/A,,Clear,240,2013-10-03 16:35:00
12:55 PM,81.0,61.5,51,30.12,10.0,WSW,3.5,-,N/A,,Clear,250,2013-10-03 16:55:00
1:15 PM,79.2,62.8,57,30.12,10.0,SW,4.6,-,N/A,,Clear,230,2013-10-03 17:15:00
1:35 PM,78.4,66.0,66,30.11,10.0,WSW,6.9,-,N/A,,Clear,240,2013-10-03 17:35:00
1:55 PM,77.4,66.7,70,30.11,10.0,SW,6.9,-,N/A,,Clear,230,2013-10-03 17:55:00
2:15 PM,76.8,67.6,73,30.10,10.0,SW,9.2,-,N/A,,Clear,220,2013-10-03 18:15:00
2:35 PM,79.0,65.5,63,30.10,10.0,South,8.1,-,N/A,,Clear,190,2013-10-03 18:35:00
2:55 PM,80.4,64.6,58,30.10,10.0,South,5.8,-,N/A,,Clear,190,2013-10-03 18:55:00
3:15 PM,78.1,64.8,63,30.10,10.0,South,3.5,-,N/A,,Clear,170,2013-10-03 19:15:00
3:35 PM,78.8,63.3,59,30.10,10.0,SSE,5.8,-,N/A,,Scattered Clouds,160,2013-10-03 19:35:00
3:55 PM,79.5,63.5,58,30.09,10.0,South,6.9,-,N/A,,Scattered Clouds,170,2013-10-03 19:55:00
4:15 PM,75.9,65.5,70,30.09,10.0,SSE,10.4,-,N/A,,Clear,160,2013-10-03 20:15:00
4:35 PM,78.3,65.8,65,30.08,10.0,South,8.1,-,N/A,,Mostly Cloudy,180,2013-10-03 20:35:00
4:55 PM,79.0,65.1,62,30.08,10.0,South,10.4,-,N/A,,Scattered Clouds,190,2013-10-03 20:55:00
5:15 PM,77.2,66.2,69,30.08,10.0,South,10.4,-,N/A,,Clear,190,2013-10-03 21:15:00
5:35 PM,75.7,66.6,73,30.09,10.0,South,9.2,-,N/A,,Clear,190,2013-10-03 21:35:00
5:55 PM,75.4,66.2,73,30.09,10.0,SSW,10.4,-,N/A,,Clear,200,2013-10-03 21:55:00
6:15 PM,76.1,65.7,70,30.10,10.0,SSW,12.7,-,N/A,,Mostly Cloudy,200,2013-10-03 22:15:00
6:35 PM,75.2,67.1,76,30.10,10.0,SSW,9.2,-,N/A,,Scattered Clouds,210,2013-10-03 22:35:00
6:55 PM,75.7,62.8,64,30.11,10.0,SW,10.4,-,N/A,,Clear,220,2013-10-03 22:55:00
7:15 PM,75.0,63.9,68,30.11,10.0,SW,6.9,-,N/A,,Clear,220,2013-10-03 23:15:00
7:35 PM,73.8,64.0,72,30.11,10.0,SW,5.8,-,N/A,,Clear,230,2013-10-03 23:35:00
7:55 PM,73.0,64.4,74,30.11,10.0,SW,5.8,-,N/A,,Clear,220,2013-10-03 23:55:00
8:15 PM,72.5,65.3,78,30.12,10.0,SW,3.5,-,N/A,,Clear,220,2013-10-04 00:15:00
8:35 PM,70.7,65.3,83,30.12,10.0,SSW,3.5,-,N/A,,Clear,200,2013-10-04 00:35:00
8:55 PM,70.7,66.2,86,30.12,10.0,SSW,3.5,-,N/A,,Clear,210,2013-10-04 00:55:00
9:15 PM,71.6,66.9,85,30.12,10.0,SW,5.8,-,N/A,,Clear,220,2013-10-04 01:15:00
9:35 PM,71.6,67.1,86,30.13,10.0,SW,4.6,-,N/A,,Clear,220,2013-10-04 01:35:00
9:55 PM,71.6,67.1,86,30.13,10.0,SSW,5.8,-,N/A,,Clear,210,2013-10-04 01:55:00
10:15 PM,70.7,66.7,87,30.13,10.0,SSW,5.8,-,N/A,,Clear,210,2013-10-04 02:15:00
10:35 PM,70.7,66.7,87,30.13,10.0,SSW,5.8,-,N/A,,Clear,210,2013-10-04 02:35:00
10:55 PM,70.9,66.6,86,30.13,10.0,SW,5.8,-,N/A,,Clear,220,2013-10-04 02:55:00
11:15 PM,70.7,66.4,86,30.13,10.0,SW,6.9,-,N/A,,Clear,220,2013-10-04 03:15:00
11:35 PM,70.7,66.4,86,30.13,10.0,SW,6.9,-,N/A,,Clear,220,2013-10-04 03:35:00